Mount Pleasant, IA

12:28 AM CDT on October 21, 2017 (GMT -0500)
Mount Pleasant Municipal

Weather History for KMPZ - January, 2013

Change the Weather History Date:

Sunday, January 27, 2013

  Actual Average Record
Temperature  
Mean Temperature 34 °F -  
Max Temperature 42 °F 30 °F 55 °F (1968)
Min Temperature 28 °F 13 °F -17 °F (1955)
Degree Days  
Heating Degree Days 30    
Moisture  
Dew Point 29 °F    
Average Humidity 85    
Maximum Humidity 99    
Minimum Humidity 54    
Precipitation  
Precipitation 0.08 in - - ()
Sea Level Pressure  
Sea Level Pressure 30.01 in    
Wind  
Wind Speed 13 mph (SE)    
Max Wind Speed 17 mph    
Max Gust Speed 22 mph    
Visibility 5 miles    
Events Fog , Rain , Snow    
Averages and records for this station are not official NWS values.
T = Trace of Precipitation, MM = Missing Value Source: NWS Daily Summary

Daily Weather History Graph

Daily Weather History Graph

Search for Another Location

Airport or City:

Trip Planner

Search our weather history database for the weather conditions in past years. The results will help you decide how hot, cold, wet, or windy it might be!

Date:

Astronomy

Jan. 27, 2013 Rise Set
Actual Time 7:20 AM CST 5:17 PM CST
Civil Twilight 6:51 AM CST 5:46 PM CST
Nautical Twilight 6:18 AM CST 6:19 PM CST
Astronomical Twilight 5:45 AM CST 6:52 PM CST
Moon 6:12 PM CST (1/27) 7:13 AM CST (1/27)
Length of Visible Light 10h 55m
Length of Day
9h 56m
Full, 100% of the Moon is Illuminated
Jan 27
Full
Feb 3
Last Quarter
Feb 10
New
Feb 17
First Quarter
Feb 25
Full

Hourly Weather History & Observations

Time (CST) Temp. Windchill Dew Point Humidity Pressure Visibility Wind Dir Wind Speed Gust Speed Precip Events Conditions
12:15 AM 28.4 °F 18.0 °F 15.1 °F 57% 30.25 in 10.0 mi SE 12.7 mph - N/A   Clear
12:35 AM 29.1 °F 18.4 °F 14.9 °F 55% 30.25 in 10.0 mi SE 13.8 mph - N/A   Clear
12:55 AM 29.3 °F 19.1 °F 15.1 °F 55% 30.25 in 10.0 mi SE 12.7 mph - N/A   Clear
1:15 AM 29.5 °F 18.8 °F 15.1 °F 55% 30.25 in 10.0 mi SE 13.8 mph 17.3 mph N/A   Clear
1:35 AM 29.7 °F 19.1 °F 14.9 °F 54% 30.24 in 10.0 mi SE 13.8 mph - N/A   Scattered Clouds
1:55 AM 29.5 °F 19.9 °F 15.1 °F 55% 30.23 in 10.0 mi SE 11.5 mph - N/A   Overcast
2:15 AM 29.7 °F 18.6 °F 15.3 °F 55% 30.22 in 10.0 mi SE 15.0 mph 19.6 mph N/A   Overcast
2:35 AM 29.5 °F 19.3 °F 15.6 °F 56% 30.23 in 10.0 mi SSE 12.7 mph - N/A   Overcast
2:55 AM 29.1 °F 17.9 °F 15.6 °F 57% 30.21 in 10.0 mi SE 15.0 mph 18.4 mph N/A   Mostly Cloudy
3:15 AM 28.8 °F 17.0 °F 15.8 °F 58% 30.20 in 10.0 mi SE 16.1 mph 19.6 mph N/A   Scattered Clouds
3:35 AM 28.8 °F 17.9 °F 16.2 °F 59% 30.19 in 10.0 mi SE 13.8 mph 18.4 mph N/A   Clear
3:55 AM 28.9 °F 18.2 °F 16.3 °F 59% 30.18 in 10.0 mi SE 13.8 mph - N/A   Scattered Clouds
4:15 AM 28.9 °F 18.6 °F 16.7 °F 60% 30.18 in 10.0 mi SSE 12.7 mph - N/A   Scattered Clouds
4:35 AM 29.3 °F 18.2 °F 17.1 °F 60% 30.17 in 10.0 mi SSE 15.0 mph - N/A   Mostly Cloudy
4:55 AM 30.0 °F 19.5 °F 17.1 °F 59% 30.16 in 10.0 mi SSE 13.8 mph 20.7 mph N/A   Overcast
5:15 AM 30.2 °F 21.3 °F 17.4 °F 59% 30.16 in 10.0 mi SSE 10.4 mph - N/A   Overcast
5:35 AM 30.0 °F 19.5 °F 17.6 °F 60% 30.17 in 10.0 mi SSE 13.8 mph - N/A   Overcast
5:55 AM 30.2 °F 19.3 °F 18.0 °F 60% 30.16 in 10.0 mi SSE 15.0 mph - N/A   Overcast
6:15 AM 30.4 °F 20.5 °F 18.1 °F 60% 30.16 in 10.0 mi SSE 12.7 mph - N/A   Overcast
6:35 AM 30.2 °F 20.2 °F 21.4 °F 70% 30.17 in 7.0 mi SSE 12.7 mph 16.1 mph N/A   Overcast
6:55 AM 30.0 °F 20.5 °F 23.4 °F 76% 30.18 in 7.0 mi SSE 11.5 mph - N/A   Overcast
7:15 AM 30.0 °F 21.7 °F 25.0 °F 82% 30.19 in 5.0 mi SSE 9.2 mph - N/A   Overcast
7:35 AM 30.0 °F 19.5 °F 25.5 °F 83% 30.17 in 7.0 mi SE 13.8 mph - N/A   Overcast
7:55 AM 29.8 °F 18.9 °F 25.7 °F 85% 30.15 in 7.0 mi SE 15.0 mph - N/A   Overcast
8:15 AM 30.2 °F 19.3 °F 26.4 °F 86% 30.15 in 7.0 mi SE 15.0 mph 20.7 mph N/A   Overcast
8:35 AM 30.2 °F 19.8 °F 27.0 °F 88% 30.12 in 4.0 mi ESE 13.8 mph - N/A   Overcast
8:55 AM 30.2 °F 19.3 °F 27.5 °F 90% 30.10 in 2.5 mi ESE 15.0 mph - N/A   Overcast
9:15 AM 31.1 °F 20.5 °F 29.1 °F 92% 30.07 in 2.5 mi ESE 15.0 mph - N/A   Unknown
9:35 AM 31.5 °F 22.9 °F 29.5 °F 92% 30.07 in 2.5 mi SE 10.4 mph 18.4 mph N/A   Overcast
9:55 AM 32.0 °F 23.0 °F 30.2 °F 93% 30.06 in 3.0 mi SE 11.5 mph - N/A   Overcast
10:15 AM 32.0 °F 23.6 °F 30.6 °F 94% 30.08 in 1.8 mi SSE 10.4 mph - 0.01 in Snow Light Snow
10:35 AM 32.0 °F 24.2 °F 30.7 °F 95% 30.08 in 1.5 mi SE 9.2 mph - 0.02 in Snow Light Snow
10:55 AM 32.0 °F 24.8 °F 31.1 °F 96% 30.07 in 2.0 mi SE 8.1 mph - 0.03 in Snow Light Snow
11:15 AM 32.0 °F 24.2 °F 31.1 °F 96% 30.04 in 2.0 mi SE 9.2 mph - 0.01 in   Overcast
11:35 AM 32.2 °F 26.7 °F 31.5 °F 97% 30.05 in 2.0 mi SE 5.8 mph - 0.02 in   Overcast
11:55 AM 32.0 °F 23.6 °F 31.5 °F 98% 30.00 in 0.8 mi SE 10.4 mph - 0.02 in Snow Light Snow
12:15 PM 32.0 °F 24.8 °F 31.6 °F 99% 30.00 in 1.8 mi SE 8.1 mph - N/A Snow Light Snow
12:35 PM 32.2 °F 25.8 °F 31.8 °F 99% 29.98 in 1.5 mi SE 6.9 mph - 0.01 in Snow Light Snow
12:55 PM 32.5 °F 24.8 °F 32.0 °F 98% 29.97 in 3.0 mi SE 9.2 mph - 0.01 in   Overcast
1:15 PM 32.5 °F 24.2 °F 32.0 °F 98% 29.95 in 2.5 mi SSE 10.4 mph - N/A   Overcast
1:35 PM 32.7 °F 24.5 °F 32.0 °F 97% 29.94 in 2.5 mi SE 10.4 mph - N/A   Overcast
1:55 PM 32.9 °F 24.1 °F 32.0 °F 96% 29.92 in 2.5 mi SE 11.5 mph - 0.01 in   Overcast
2:15 PM 33.1 °F 23.9 °F 32.0 °F 96% 29.92 in 2.0 mi SSE 12.7 mph - N/A   Overcast
2:35 PM 33.3 °F 22.8 °F 32.2 °F 96% 29.91 in 2.0 mi SSE 16.1 mph 20.7 mph N/A Snow Light Snow
2:55 PM 33.8 °F 23.9 °F 32.9 °F 96% 29.90 in 1.5 mi SSE 15.0 mph - N/A   Overcast
3:15 PM 34.0 °F 24.2 °F 33.1 °F 96% 29.90 in 1.8 mi SSE 15.0 mph 21.9 mph N/A   Overcast
3:35 PM 34.3 °F 25.0 °F 33.4 °F 97% 29.89 in 1.5 mi SSE 13.8 mph - N/A   Overcast
3:55 PM 34.7 °F 25.5 °F 34.0 °F 97% 29.89 in 1.0 mi SSE 13.8 mph 19.6 mph N/A Rain Light Rain
4:15 PM 34.9 °F 25.3 °F 34.2 °F 97% 29.88 in 0.8 mi SSE 15.0 mph - N/A   Overcast
4:35 PM 34.9 °F 24.6 °F 34.2 °F 97% 29.87 in 0.8 mi SSE 17.3 mph 20.7 mph N/A   Overcast
4:55 PM 35.1 °F 25.5 °F 34.3 °F 97% 29.87 in 0.5 mi SSE 15.0 mph - 0.01 in Fog Fog
5:15 PM 35.6 °F 25.9 °F 34.9 °F 97% 29.86 in 1.0 mi SSE 16.1 mph 20.7 mph N/A   Overcast
5:35 PM 35.8 °F 27.3 °F 35.2 °F 98% 29.86 in 1.0 mi SSE 12.7 mph 19.6 mph N/A   Overcast
5:55 PM 36.1 °F 27.3 °F 35.6 °F 98% 29.85 in 1.5 mi SSE 13.8 mph - N/A   Overcast
6:15 PM 36.5 °F 27.8 °F 35.8 °F 97% 29.85 in 1.8 mi SE 13.8 mph 17.3 mph N/A   Overcast
6:35 PM 36.5 °F 28.2 °F 36.0 °F 98% 29.84 in 1.8 mi SE 12.7 mph - N/A   Overcast
6:55 PM 36.5 °F 28.7 °F 36.0 °F 98% 29.84 in 2.0 mi SE 11.5 mph - N/A   Overcast
7:15 PM 36.5 °F 29.7 °F 36.0 °F 98% 29.85 in 2.0 mi SSE 9.2 mph - N/A   Overcast
7:35 PM 36.7 °F 28.9 °F 36.0 °F 97% 29.85 in 2.0 mi SSE 11.5 mph - N/A Rain Light Rain
7:55 PM 36.9 °F 28.7 °F 36.3 °F 98% 29.85 in 2.0 mi SSE 12.7 mph - N/A   Overcast
8:15 PM 37.4 °F 29.3 °F 36.5 °F 97% 29.84 in 2.0 mi SE 12.7 mph - N/A   Overcast
8:35 PM 37.4 °F 29.8 °F 36.7 °F 97% 29.84 in 2.5 mi SSE 11.5 mph - N/A   Overcast
8:55 PM 37.6 °F 30.0 °F 36.9 °F 97% 29.84 in 2.5 mi SSE 11.5 mph - N/A   Overcast
9:15 PM 38.3 °F 30.1 °F 37.6 °F 97% 29.83 in 3.0 mi SSE 13.8 mph - N/A   Overcast
9:35 PM 39.2 °F 31.2 °F 38.3 °F 97% 29.83 in 3.0 mi SSE 13.8 mph 19.6 mph N/A   Overcast
9:55 PM 39.4 °F 31.4 °F 38.3 °F 96% 29.82 in 3.0 mi SSE 13.8 mph - N/A   Overcast
10:15 PM 39.4 °F 31.8 °F 38.3 °F 96% 29.82 in 3.0 mi SSE 12.7 mph - N/A   Overcast
10:35 PM 39.4 °F 32.3 °F 38.5 °F 97% 29.81 in 3.0 mi SSE 11.5 mph - N/A   Overcast
10:55 PM 40.1 °F 33.2 °F 39.2 °F 97% 29.81 in 3.0 mi South 11.5 mph - N/A   Overcast
11:15 PM 41.9 °F 35.0 °F 41.0 °F 97% 29.81 in 5.0 mi South 12.7 mph - N/A   Overcast
11:35 PM 41.9 °F 35.0 °F 41.0 °F 97% 29.80 in 4.0 mi South 12.7 mph - N/A   Overcast
11:55 PM 42.1 °F 35.7 °F 41.0 °F 96% 29.81 in 4.0 mi South 11.5 mph - N/A   Overcast